GFSGL_500_spd_000.txt.gz
Wind_Speed
65 67 69 71 72 74 77 79 79 79 76 68 62 58 59 61 66 68 68 66 65 63 62 62 60 61 60 60 60 58 57 57 55 54 54 57 64 72 77 85 93 93 93
68 68 70 73 76 79 79 80 79 76 70 62 57 55 56 58 59 60 61 61 60 60 61 62 62 64 65 66 67 66 66 66 66 64 63 62 62 65 72 76 85 93 96
72 75 75 76 77 76 79 78 73 66 60 54 51 51 51 53 55 57 57 57 58 60 60 61 62 64 65 67 69 69 70 70 69 70 70 72 72 72 71 74 78 85 93
75 77 77 78 78 78 76 72 62 56 52 49 48 49 50 50 52 55 56 56 57 58 61 63 64 65 66 66 67 68 69 70 71 73 74 75 78 77 78 78 77 80 84
79 79 80 81 79 76 72 64 54 48 48 47 47 48 49 53 53 52 54 56 57 56 56 56 57 56 55 53 52 52 56 58 61 66 69 74 76 80 83 82 83 84 83
82 84 84 82 75 70 62 54 49 49 47 48 48 50 53 51 51 54 56 55 53 53 50 42 39 36 33 31 31 32 32 31 28 33 42 56 65 74 78 82 85 86 88
86 87 84 77 64 52 49 48 48 47 47 46 50 53 50 50 53 55 54 52 52 40 33 28 27 26 29 30 32 33 31 31 30 29 25 25 31 40 57 72 80 84 88
89 85 77 64 55 48 45 45 46 46 45 49 51 50 49 52 54 52 52 48 34 27 25 26 30 33 36 36 35 36 36 36 36 36 35 34 32 35 37 43 60 74 81
91 81 65 53 48 45 43 43 43 45 50 51 50 50 51 53 52 51 47 32 21 22 28 33 36 37 37 38 38 39 39 38 38 38 38 38 37 35 37 40 36 40 51
84 65 54 49 46 46 45 45 47 51 51 50 50 51 52 50 48 46 33 22 20 26 31 32 35 37 37 35 33 29 27 32 35 36 39 44 43 44 42 42 43 40 38
62 54 51 49 47 46 46 49 52 53 52 51 51 51 49 47 44 34 24 20 24 28 29 30 33 33 30 24 23 20 21 27 25 27 31 32 35 39 44 49 49 49 49
53 53 51 48 46 47 51 54 54 53 53 52 50 47 45 44 38 25 19 23 26 24 25 23 22 23 24 21 19 17 15 13 12 14 17 20 25 31 37 42 45 51 55
54 52 49 48 50 54 56 56 56 56 53 50 46 43 38 36 27 19 20 23 22 20 18 15 15 18 16 12 12 9 10 12 14 16 21 24 26 29 30 31 34 37 44
53 50 50 53 56 57 58 58 57 55 52 47 43 38 31 27 18 15 17 16 17 19 18 17 17 21 17 9 5 6 7 9 10 11 13 16 19 22 26 28 31 34 37
50 52 55 57 58 59 59 57 55 52 49 43 36 28 22 21 14 13 8 9 10 11 13 10 14 16 18 12 10 10 14 15 16 17 19 22 23 27 30 32 36 39 37
54 56 58 59 60 58 54 50 49 46 44 36 26 16 17 17 13 7 3 4 6 8 7 7 9 9 10 14 15 19 19 16 13 12 14 19 25 28 27 30 33 36 36
55 58 59 58 53 49 46 41 37 37 35 27 18 13 13 15 12 7 5 3 4 6 10 9 6 4 6 10 13 16 17 16 14 20 23 22 21 12 12 11 12 20 26
58 57 53 46 42 39 35 35 34 29 25 23 15 9 11 14 13 10 7 3 2 4 8 11 9 6 5 4 7 12 18 22 24 20 18 18 19 11 7 12 14 16 18
54 47 42 39 36 34 34 33 29 26 21 13 12 8 9 16 14 12 8 5 1 2 4 7 11 9 6 4 6 10 16 19 22 24 20 17 20 14 7 5 10 14 16
42 39 37 35 34 33 32 28 27 23 13 12 9 7 10 16 15 13 10 6 3 1 2 4 7 8 9 10 11 12 14 16 20 25 27 21 20 20 13 7 1 6 10
38 35 34 33 33 32 28 26 23 15 14 10 6 7 12 16 15 14 11 8 5 3 1 2 4 4 5 8 10 12 14 15 18 21 24 26 22 23 24 15 9 3 3
34 33 32 30 33 28 26 24 19 14 13 7 5 7 12 17 16 15 13 9 7 4 2 1 2 4 6 7 8 10 10 11 13 15 18 21 24 22 21 21 20 11 3
31 32 30 30 32 28 25 21 17 15 10 5 6 6 11 17 16 15 15 12 9 6 4 3 3 4 6 6 7 8 9 9 8 10 13 16 19 21 21 19 19 18 16
32 34 33 29 27 25 24 20 18 15 9 5 6 6 9 16 18 16 15 15 13 11 8 6 6 6 7 7 8 8 8 8 7 7 9 11 13 15 16 17 17 18 17
31 34 29 24 24 24 23 20 18 14 8 6 6 6 6 12 18 19 18 16 16 15 13 12 11 10 10 10 10 10 10 9 7 6 8 9 9 9 10 11 12 14 14
31 30 24 23 23 23 24 22 19 14 10 8 7 7 5 6 12 18 21 20 19 18 17 16 15 14 15 15 15 15 13 11 8 8 8 9 9 9 9 8 8 8 10

GFSGL_500_spd_003.txt.gz
Wind_Speed
69 69 71 76 80 78 78 78 77 79 79 77 72 69 65 61 57 58 62 64 69 72 76 78 76 73 70 68 67 66 66 65 61 57 56 54 55 55 58 65 71 74 79
70 74 80 80 82 81 82 81 80 76 72 69 65 61 58 54 52 52 54 57 58 59 61 63 64 65 65 66 68 68 69 68 67 63 62 60 59 58 59 61 66 72 74
78 82 83 83 82 83 80 81 74 70 65 59 55 52 48 48 50 51 52 53 54 54 57 59 60 61 61 63 65 66 67 68 69 68 65 65 65 65 65 64 65 67 71
83 84 85 86 87 86 88 88 76 64 53 49 48 47 48 49 48 48 47 49 54 56 55 57 60 62 64 65 66 66 67 68 70 71 71 71 70 70 72 71 71 70 69
84 86 87 93 89 86 86 81 64 51 46 46 45 45 45 46 47 47 50 53 52 54 57 57 58 59 60 62 63 62 62 63 65 67 68 70 72 75 76 76 77 76 77
86 87 88 86 87 87 84 60 47 45 43 49 50 48 46 45 47 50 50 50 53 53 52 53 57 59 52 46 40 36 34 35 37 41 46 54 62 69 75 78 79 81 78
87 84 83 88 88 67 51 46 45 46 48 48 47 44 44 47 49 49 50 51 51 49 51 54 47 37 33 32 33 34 34 35 33 32 31 30 32 37 54 68 76 81 82
90 83 88 85 75 52 46 44 44 46 46 45 45 46 49 49 48 49 50 49 46 48 48 38 28 28 32 37 39 39 40 40 40 40 38 37 35 34 31 34 48 69 79
88 88 85 73 57 48 47 46 45 44 44 45 49 51 50 49 49 50 48 43 43 40 32 27 29 32 37 40 40 39 38 38 41 44 44 41 40 42 41 39 35 36 44
86 79 60 51 50 48 46 45 44 46 49 51 52 52 51 50 49 46 42 39 36 28 24 27 32 35 35 36 36 34 29 29 28 28 36 41 44 44 45 44 42 36 37
74 56 52 51 50 47 46 47 50 52 53 53 53 53 52 49 45 41 37 35 25 20 22 27 31 31 31 31 30 23 19 19 20 24 26 32 37 39 44 48 49 45 39
55 51 51 49 49 49 52 54 55 55 56 56 54 52 50 46 41 35 31 23 16 17 22 25 24 23 23 24 19 12 12 13 16 19 19 18 22 29 34 38 43 47 49
51 52 50 50 53 54 55 57 58 58 57 55 52 48 44 42 36 29 20 13 14 16 19 15 12 9 12 13 11 8 7 10 12 14 16 18 20 23 23 23 27 35 41
51 49 51 53 56 58 60 59 56 54 51 48 43 37 33 31 26 18 10 8 9 8 13 12 9 6 14 12 13 14 14 15 17 19 18 17 17 19 21 24 26 28 29
49 51 54 57 59 57 54 51 48 45 42 37 33 29 24 22 19 9 6 4 2 6 10 10 4 2 6 8 12 17 18 17 18 17 16 16 19 22 25 27 28 28 28
50 54 57 56 52 49 46 44 43 41 40 36 33 27 20 12 11 6 8 7 4 3 7 4 0 1 5 9 11 13 19 21 20 18 17 19 19 21 24 27 32 36 37
53 54 52 48 45 43 41 41 39 38 36 32 29 18 9 7 8 11 11 7 3 2 4 3 1 2 3 7 9 16 20 19 20 20 22 19 18 22 18 13 16 20 28
52 48 44 42 42 40 39 39 37 32 30 28 19 15 6 5 11 14 12 7 2 2 3 6 5 5 2 2 7 14 14 17 21 24 24 23 22 22 17 12 11 14 13
46 42 41 39 39 36 39 35 32 31 27 20 18 11 3 5 13 16 13 8 4 1 3 3 5 8 7 5 5 6 11 16 20 24 25 25 27 26 18 15 8 9 12
41 40 38 38 35 36 38 34 31 28 24 21 15 6 3 6 14 16 14 10 6 1 2 3 3 5 6 6 5 7 10 14 17 20 22 23 24 27 29 20 13 8 8
40 38 38 39 37 35 33 32 30 26 23 19 11 5 4 8 14 16 15 11 7 4 0 2 4 5 7 8 9 10 11 13 14 15 18 19 20 22 25 27 25 17 11
38 39 37 38 33 31 32 31 27 24 21 14 8 6 5 7 13 16 16 12 9 7 3 2 3 4 6 7 7 8 9 10 9 10 13 17 19 20 20 21 23 23 21
38 38 36 33 29 29 30 30 27 24 19 13 8 7 6 6 12 16 16 15 12 10 7 6 5 5 7 8 10 10 9 9 10 9 10 13 15 17 18 19 19 19 19
38 37 34 30 28 29 30 29 27 23 18 13 10 10 9 8 11 15 16 17 16 14 11 9 8 8 8 8 9 10 10 10 11 11 9 12 12 13 14 16 16 16 16
37 37 34 29 27 27 28 29 28 25 18 14 11 10 10 9 10 15 17 17 17 18 16 15 13 12 12 12 12 13 13 13 12 11 10 10 11 12 14 14 15 15 15
36 36 34 30 26 27 27 27 27 26 20 17 13 10 10 10 9 11 17 19 19 19 18 18 17 16 15 15 15 15 16 16 15 13 11 12 13 14 13 12 12 14 15

GFSGL_500_spd_006.txt.gz
Wind_Speed
69 70 71 74 80 84 86 88 90 90 88 88 84 79 75 65 59 55 54 52 51 53 64 68 71 74 73 78 81 81 79 75 71 62 61 58 55 55 57 60 63 67 72
70 73 76 81 85 89 91 92 91 90 88 84 75 65 56 53 52 49 48 48 49 50 52 54 57 59 61 63 64 64 65 66 67 64 62 62 59 58 58 58 60 61 63
78 82 82 83 84 90 94 96 94 89 83 73 61 46 46 46 47 47 47 48 50 50 50 51 52 53 55 59 60 60 61 62 64 64 62 62 62 61 60 61 62 63 62
83 81 82 82 83 91 97 98 90 79 68 52 41 41 42 43 45 47 47 45 45 44 45 47 50 53 55 56 59 61 63 64 65 65 65 65 67 68 68 66 65 63 63
79 80 82 89 98 100 100 89 76 60 44 40 41 44 51 52 54 53 49 46 45 47 50 51 52 54 56 59 60 59 59 62 64 66 67 67 67 67 68 69 69 69 65
77 88 93 102 100 95 88 71 55 43 43 45 46 48 49 49 48 47 44 45 47 49 49 50 52 55 56 56 56 59 59 52 43 40 38 37 39 50 62 69 70 70 69
87 91 88 88 97 80 65 52 46 44 44 45 46 47 46 45 44 44 47 48 48 47 49 50 50 51 51 52 48 38 33 33 34 36 37 37 35 33 35 46 55 62 65
93 87 88 94 81 63 54 49 47 45 44 44 44 44 45 47 49 49 50 48 47 48 48 47 47 45 45 37 32 33 37 41 43 45 44 42 41 40 37 34 33 37 45
92 95 92 74 58 52 51 50 47 46 47 48 50 51 51 51 52 51 49 47 46 46 45 45 41 39 30 31 34 37 37 38 41 42 42 41 39 42 43 41 37 33 28
93 89 67 55 52 53 51 49 49 52 53 53 53 54 54 53 53 52 49 46 42 40 40 38 35 27 28 32 33 30 29 32 32 31 30 29 29 32 39 45 46 41 39
79 60 53 53 55 52 52 54 55 56 57 57 55 55 55 55 53 51 48 41 36 33 31 28 25 25 28 26 26 27 23 20 19 19 18 20 24 27 33 35 42 47 45
56 50 54 54 52 55 57 59 59 58 55 52 50 46 45 45 47 44 37 31 27 23 22 19 18 21 18 14 10 10 10 9 11 15 17 20 24 25 25 26 33 38 43
50 54 52 53 55 59 60 58 54 51 49 46 43 39 37 37 37 33 23 18 15 15 12 13 15 11 4 3 6 11 15 14 15 18 21 21 20 16 18 20 20 26 35
51 50 51 55 59 58 54 51 49 47 45 41 39 37 34 32 28 23 13 10 10 7 6 6 6 6 5 3 9 14 14 15 17 16 18 16 14 18 21 22 19 23 25
48 49 54 56 55 49 47 46 45 45 43 40 36 34 30 24 19 9 9 12 10 5 2 7 5 6 5 1 8 11 16 16 19 20 18 15 16 17 19 21 22 23 22
46 50 51 51 47 45 44 41 44 44 41 37 35 27 18 13 6 6 10 10 7 3 2 4 3 6 5 0 5 11 14 16 20 21 22 19 15 14 16 18 20 24 27
45 46 48 46 44 43 42 41 41 40 38 33 25 22 16 10 3 9 11 9 6 3 2 3 2 5 5 3 1 10 12 16 20 22 24 27 29 23 17 13 7 11 14
41 43 45 44 42 43 43 39 37 35 31 27 26 21 11 2 4 11 12 10 7 3 3 4 5 4 3 2 1 6 9 13 18 20 21 26 30 32 30 23 15 6 6
38 41 43 43 42 40 38 36 36 33 29 26 24 13 3 2 8 12 12 10 6 4 4 3 3 5 5 4 4 6 9 13 16 17 19 20 24 28 31 31 25 16 9
36 39 42 41 40 37 34 35 35 30 29 25 18 8 5 1 9 12 12 10 6 4 3 4 4 3 3 4 5 7 9 11 12 13 15 19 21 23 25 27 29 26 17
35 38 40 40 38 34 33 34 33 31 27 21 14 8 5 2 9 12 13 10 7 4 1 1 3 4 3 3 5 7 10 10 10 11 13 16 20 21 21 23 25 26 26
36 37 38 38 36 34 32 33 32 30 26 20 14 10 7 1 8 12 14 13 10 8 5 3 3 4 6 6 7 8 8 9 9 9 10 13 18 19 19 20 20 22 24
37 37 37 36 34 32 32 31 31 30 26 20 16 11 9 5 7 11 15 15 14 12 11 8 7 6 7 7 8 9 8 9 9 10 11 12 14 15 17 18 18 18 18
36 37 36 34 32 31 30 30 29 29 27 21 17 11 9 9 5 11 14 17 17 16 14 13 12 11 10 10 10 11 12 12 12 12 12 14 12 13 16 17 16 16 17
35 36 36 34 31 29 29 29 28 27 27 24 18 14 10 9 8 7 14 17 18 19 19 18 18 16 15 14 13 13 13 13 14 15 14 14 14 14 15 16 14 14 16
34 35 35 34 31 28 27 27 28 27 26 24 22 17 12 11 10 8 7 13 19 20 20 20 20 20 19 18 17 16 16 16 16 17 17 16 16 17 16 16 16 16 16

GFSGL_500_spd_009.txt.gz
Wind_Speed
75 76 77 79 80 81 84 86 82 87 89 92 97 100 103 89 72 67 62 54 49 48 47 47 46 58 58 62 66 70 71 71 75 70 72 72 74 75 72 68 65 63 69
76 77 78 81 85 85 85 86 87 86 94 97 93 89 76 59 52 45 46 48 49 47 45 45 47 49 53 57 61 65 71 73 75 77 72 70 63 58 59 61 61 61 63
78 80 79 81 81 85 83 89 95 100 103 93 80 60 50 45 42 44 46 49 49 47 46 48 48 48 49 52 54 54 55 56 57 59 57 58 59 59 59 61 62 62 63
79 80 82 86 84 82 88 94 99 95 89 64 50 44 42 42 44 46 47 47 50 51 50 47 44 43 44 46 48 50 51 52 54 57 58 58 61 61 61 62 63 65 64
78 80 84 82 84 92 95 99 84 72 55 47 45 45 46 46 48 49 49 48 47 46 45 45 45 47 49 49 49 49 51 54 56 58 58 57 57 59 59 61 63 67 67
78 82 85 91 95 95 95 76 58 48 46 47 47 46 46 46 46 45 45 44 44 44 44 46 48 49 49 49 49 51 53 53 51 52 56 59 56 55 54 56 61 67 69
83 87 90 89 88 81 66 53 49 49 48 46 45 44 45 46 47 48 48 47 47 48 48 48 48 48 47 48 48 48 48 49 50 43 34 32 33 35 36 36 36 38 45
88 90 86 79 68 60 51 52 52 49 48 49 51 52 53 53 53 53 52 51 50 50 48 47 45 43 44 43 42 42 41 32 32 35 37 39 41 42 44 43 42 39 37
87 81 72 61 54 49 52 50 50 52 54 56 57 58 58 57 57 56 55 54 53 51 49 46 43 40 40 39 37 29 27 32 37 38 37 36 37 38 41 45 45 45 41
77 66 57 49 47 50 50 52 54 57 58 57 55 53 52 51 50 48 47 47 47 47 45 42 38 35 33 31 21 23 24 25 25 24 25 25 25 26 27 30 37 42 44
64 58 49 47 49 50 52 55 57 56 53 52 50 48 47 46 44 41 39 37 34 30 30 29 27 26 24 15 16 12 11 10 10 11 12 14 17 19 22 24 26 30 32
57 47 46 47 48 51 54 56 54 52 50 47 44 44 43 42 41 37 34 31 26 20 19 17 18 19 12 11 10 8 9 12 14 16 17 17 19 21 20 22 26 28 29
46 44 45 46 49 51 54 53 50 48 46 43 44 39 37 38 37 34 28 22 15 12 11 10 12 12 9 10 6 5 10 13 15 16 17 20 23 22 24 23 21 18 22
41 43 43 46 47 50 51 49 48 47 46 42 38 36 34 32 30 26 18 10 7 11 9 6 8 8 11 10 3 3 11 12 14 16 16 15 16 21 22 23 23 21 18
40 40 42 43 46 49 48 47 46 43 41 37 35 29 26 26 24 17 5 6 10 10 7 5 4 3 7 6 3 3 8 11 14 17 19 20 17 14 17 21 23 24 22
37 38 40 41 44 46 45 43 42 41 40 36 32 27 26 22 16 5 6 10 9 7 6 6 6 7 8 7 4 2 6 10 13 15 19 24 26 25 19 13 13 17 21
33 37 37 38 42 43 43 38 37 40 40 35 31 28 22 14 4 5 11 10 7 5 6 6 7 9 9 8 5 1 4 8 11 12 16 20 24 28 29 24 15 7 6
31 34 35 36 40 41 40 36 36 37 35 32 30 20 15 7 1 10 11 10 7 6 4 6 5 6 6 6 4 1 3 6 10 12 13 17 21 25 28 31 26 17 7
30 33 34 35 38 39 38 35 35 35 33 29 25 16 11 5 5 10 10 9 8 7 6 4 3 4 5 4 2 2 3 5 7 9 11 15 19 22 25 27 28 27 18
29 33 35 35 37 37 37 34 33 33 31 27 21 16 12 2 6 9 9 8 5 5 5 5 4 2 1 1 2 2 3 4 6 7 10 13 16 20 20 21 23 25 26
30 34 35 35 36 36 34 33 31 31 29 25 20 15 10 2 7 10 10 9 7 4 1 1 2 2 2 2 2 3 4 4 6 7 10 12 14 16 18 19 18 19 21
30 34 34 34 36 36 32 32 30 29 28 24 20 15 10 6 8 11 13 13 12 10 8 5 4 4 3 4 4 5 6 7 8 8 9 10 11 12 15 16 16 15 17
31 34 33 33 35 36 32 30 29 28 27 25 21 17 13 8 6 12 14 15 16 16 13 12 10 9 7 6 6 6 7 7 8 9 10 10 10 10 11 14 14 13 14
31 33 32 33 35 36 32 28 28 27 27 24 22 18 15 12 9 8 15 18 18 19 18 17 16 15 13 11 10 10 10 10 9 10 11 13 13 13 12 12 12 12 13
31 32 31 33 36 36 32 28 26 26 26 25 23 20 17 14 12 10 10 16 21 21 21 21 20 20 19 17 16 15 14 14 13 13 14 15 16 16 16 15 13 13 13
30 29 31 34 37 35 31 28 27 26 25 25 24 22 20 16 13 11 10 10 15 21 23 22 22 22 22 21 20 19 19 18 18 18 18 19 19 19 18 17 16 15 15

GFSGL_500_spd_012.txt.gz
Wind_Speed
72 74 77 80 82 84 83 82 83 84 86 87 85 86 95 93 80 69 54 50 47 46 46 52 49 51 51 50 57 60 61 64 65 62 62 64 67 70 75 75 75 80 81
75 77 80 84 85 85 83 78 83 88 89 90 90 86 77 65 54 46 44 46 48 47 48 49 48 48 48 47 47 48 55 64 70 69 67 66 66 67 68 68 71 72 73
80 80 88 89 86 84 86 87 88 87 85 81 70 61 49 45 43 44 46 47 48 49 50 50 51 49 48 50 53 51 50 52 55 59 60 64 63 63 66 70 71 73 75
75 87 96 91 90 88 89 88 86 79 70 63 52 48 46 46 46 46 48 49 49 49 49 49 48 48 47 47 45 43 43 45 49 51 50 49 53 55 56 58 60 63 65
78 97 97 93 92 92 88 83 73 63 54 50 50 50 48 46 44 44 45 46 46 46 46 46 45 44 44 43 41 41 43 44 46 49 49 49 52 55 57 59 61 63 65
94 94 93 92 90 87 80 66 60 52 51 52 49 49 49 50 48 49 48 49 50 50 50 50 49 47 45 44 44 44 45 46 46 48 48 47 47 50 53 53 55 57 59
92 91 90 87 83 74 63 56 50 51 51 50 52 53 55 55 53 53 53 52 53 53 53 52 50 49 48 47 47 46 46 45 44 44 43 43 44 44 44 43 43 45 49
88 86 83 78 68 60 52 48 50 50 52 54 56 57 56 55 53 53 52 52 51 51 52 52 52 49 47 44 42 40 39 38 38 40 39 33 32 35 36 37 39 39 40
83 81 73 65 60 49 46 48 49 51 54 57 56 54 52 50 50 49 48 45 44 44 45 45 46 45 43 41 37 33 31 30 30 28 32 32 34 36 38 40 42 45 46
77 70 63 61 51 47 46 48 50 53 56 55 53 51 49 48 48 46 42 38 36 35 35 37 37 35 32 31 27 23 21 21 21 20 20 22 24 27 29 31 32 34 38
69 62 60 53 46 45 46 48 51 54 55 52 50 48 46 45 43 42 40 36 32 29 29 28 26 21 20 19 17 16 14 11 12 14 15 15 16 18 21 22 24 26 27
63 60 55 46 44 44 46 48 52 54 52 48 46 44 43 41 39 36 35 32 26 23 21 17 12 12 11 12 14 11 9 10 12 12 13 15 19 22 25 27 28 27 25
64 55 44 42 41 43 44 48 51 52 48 44 43 42 40 37 34 36 33 26 17 12 6 4 5 6 7 8 8 9 7 6 5 7 10 12 13 17 22 25 28 28 28
54 42 38 37 39 41 43 47 50 49 43 42 40 38 36 35 34 29 23 14 4 4 7 6 4 6 7 11 11 8 1 2 5 9 12 13 16 15 13 17 22 26 27
36 31 33 34 38 39 41 45 48 45 40 40 39 37 35 32 26 19 10 4 5 6 7 5 6 6 9 13 10 6 5 5 6 9 13 16 19 21 20 18 15 18 21
25 28 28 33 36 37 40 44 44 41 40 39 38 34 31 25 17 7 3 6 6 5 6 6 8 11 13 12 10 8 6 5 5 8 11 14 16 20 24 25 21 13 10
25 23 28 32 35 36 39 42 41 39 37 38 36 29 25 19 12 2 5 6 6 4 4 6 9 11 12 11 9 7 6 5 4 4 8 11 15 19 22 25 27 23 13
19 23 28 34 36 36 38 40 39 37 35 36 33 27 22 17 6 2 5 6 7 5 2 3 4 7 8 8 7 6 5 3 2 2 4 9 12 15 18 21 24 27 23
19 25 30 34 36 36 37 39 37 36 33 33 31 26 22 12 3 4 4 4 5 6 5 2 2 3 5 7 7 5 4 4 2 1 3 8 10 12 15 17 19 21 24
21 26 30 35 36 36 37 39 36 34 32 29 29 25 21 11 4 7 7 5 2 3 4 4 3 2 2 3 4 4 3 3 3 3 5 8 9 10 12 15 16 17 18
22 27 30 35 35 35 37 39 36 32 31 28 27 25 19 15 8 11 12 11 9 6 4 1 0 0 1 1 3 4 4 6 6 5 6 7 8 9 11 12 12 12 13
24 27 31 34 34 35 37 39 36 32 30 29 25 23 21 16 13 12 16 17 15 14 12 10 7 6 6 4 4 4 5 5 6 6 7 8 7 9 10 10 10 9 10
25 28 30 33 33 35 38 38 35 32 30 28 26 23 21 19 16 14 14 19 20 20 18 16 15 14 12 11 9 9 8 8 7 7 8 9 10 11 12 12 11 10 9
25 28 30 31 32 35 38 38 33 31 29 29 26 25 22 20 17 17 16 15 20 23 22 22 21 20 19 18 16 15 13 12 12 11 11 11 11 12 13 14 14 13 12
25 27 30 29 30 34 38 37 32 30 29 29 28 25 24 22 19 18 17 17 17 21 25 25 25 24 24 23 22 21 19 18 17 17 17 16 16 16 17 17 18 17 16
25 28 27 28 31 35 38 37 32 29 28 29 28 26 24 24 21 19 17 17 17 17 20 25 27 27 27 26 25 24 23 23 22 22 21 21 21 21 21 21 21 20 19

GFSGL_500_spd_015.txt.gz
Wind_Speed
74 75 76 79 80 82 85 82 85 92 93 92 88 84 80 74 68 64 56 51 50 48 46 45 48 47 47 48 53 51 56 52 51 58 57 56 55 57 59 72 77 71 68
79 80 79 80 81 83 85 99 94 94 91 88 83 75 66 57 50 49 48 47 47 47 47 47 46 48 48 49 47 47 49 51 49 52 50 56 61 62 62 64 62 60 68
80 79 77 80 81 88 94 95 93 90 84 77 66 60 52 48 49 50 50 48 47 48 48 48 49 49 49 49 48 49 51 53 53 52 50 51 53 56 62 67 67 67 66
78 76 80 84 87 88 90 91 89 82 73 64 55 49 48 50 49 48 49 49 49 49 49 48 48 48 47 45 45 44 45 45 47 49 46 47 50 52 53 55 58 62 65
78 79 82 84 86 87 87 84 76 68 61 54 50 50 51 51 52 51 53 52 53 53 53 53 52 51 49 48 46 43 42 42 42 41 38 39 42 45 50 53 55 57 59
82 83 85 85 84 83 80 73 65 61 52 50 51 52 53 55 56 55 55 53 52 50 50 51 52 53 52 50 48 46 44 43 42 41 39 40 42 44 47 50 53 56 56
86 85 82 84 82 78 71 64 62 53 50 51 52 53 57 58 56 53 52 51 49 48 48 48 48 47 48 49 48 46 45 44 43 42 41 40 42 43 45 46 48 52 54
86 84 83 81 77 70 64 62 55 50 50 52 54 58 59 57 55 50 49 48 46 45 45 44 43 43 44 43 42 43 43 42 40 39 38 37 37 38 39 40 43 46 49
82 80 79 76 70 65 63 56 50 48 50 51 56 58 56 51 50 48 46 42 39 39 40 40 40 37 36 36 35 35 36 35 35 34 32 29 29 30 33 35 36 40 40
81 78 73 70 68 62 54 47 46 47 48 52 56 55 49 48 49 47 44 38 35 35 37 36 35 32 29 27 26 26 24 27 26 23 19 17 19 20 24 26 30 34 38
77 75 72 69 62 49 41 44 45 46 48 53 54 48 47 47 46 44 43 39 37 35 33 28 27 24 22 19 18 18 18 18 16 13 12 15 19 21 23 23 23 25 26
74 73 65 54 45 36 41 41 44 45 49 52 50 45 47 47 45 43 39 34 30 26 19 16 13 9 6 9 12 14 14 13 11 10 14 15 15 16 20 23 27 30 31
69 58 48 35 29 35 35 39 41 43 48 49 46 44 44 43 40 36 30 25 19 12 7 4 3 2 2 5 9 13 14 9 8 8 5 1 3 6 9 12 16 22 27
52 39 27 24 28 30 35 38 39 43 47 46 43 42 41 37 35 29 21 13 10 8 6 4 4 4 2 3 10 13 10 9 7 8 7 8 10 11 13 15 15 16 20
30 20 22 23 24 30 35 36 39 42 44 44 41 40 36 32 28 21 13 11 10 9 7 7 7 6 6 10 12 10 9 11 11 7 6 8 9 11 14 17 19 20 18
18 22 20 22 27 33 36 37 38 41 41 40 39 38 34 29 23 13 9 10 11 9 7 7 8 9 9 11 10 9 9 11 8 6 6 7 9 11 13 17 20 23 22
23 22 20 24 29 34 37 37 39 42 39 37 36 36 31 26 17 8 7 9 10 9 7 6 5 6 6 7 7 6 5 6 6 4 3 5 7 10 12 16 19 21 24
26 23 23 27 31 35 38 37 39 41 37 36 35 33 29 22 13 8 6 6 8 8 6 4 2 2 3 4 4 5 5 6 5 5 2 2 6 8 10 13 15 17 20
28 25 25 29 32 35 38 37 39 41 36 33 33 32 28 21 13 10 8 5 4 5 5 4 3 3 5 7 7 7 7 8 7 6 4 3 5 7 8 10 11 12 15
29 26 26 29 32 35 36 36 39 40 35 32 31 31 29 24 16 12 12 12 8 5 3 3 3 3 3 4 5 6 7 8 9 8 6 6 5 6 7 8 9 9 10
29 27 27 29 32 34 35 36 39 40 34 30 30 28 28 25 20 15 16 17 17 14 11 8 6 4 3 3 4 6 8 8 9 8 8 7 7 8 9 9 9 9 8
30 28 27 29 30 33 33 34 38 40 34 29 28 28 25 26 24 20 17 17 21 21 19 17 15 12 10 8 7 7 7 7 8 9 10 10 10 10 11 11 11 10 10
30 28 27 28 31 31 31 34 37 40 35 29 27 28 27 24 25 23 21 18 17 21 24 24 22 20 18 16 15 13 12 11 11 12 12 12 12 12 12 13 13 14 13
29 27 27 28 31 30 31 35 37 39 37 30 27 26 26 25 24 25 24 21 19 18 20 25 26 26 25 23 21 20 18 17 17 16 16 16 16 15 14 15 15 16 16
27 27 27 29 29 28 31 35 37 38 38 33 28 27 26 26 26 25 25 23 21 19 19 19 24 28 29 28 27 26 25 24 23 22 22 21 21 21 21 20 20 20 20
25 27 28 27 26 28 31 35 37 38 39 36 30 28 27 28 28 27 24 22 21 20 19 19 20 22 27 30 30 30 30 28 27 27 26 26 26 26 26 26 26 25 24

GFSGL_500_spd_018.txt.gz
Wind_Speed
76 80 82 83 83 82 79 79 79 80 81 83 84 83 80 73 65 59 53 48 45 45 47 49 49 49 47 45 44 41 42 44 44 47 45 46 47 52 61 68 67 64 65
80 82 84 82 81 80 79 81 81 81 81 82 80 73 64 58 53 48 46 46 47 47 47 47 46 47 47 47 47 46 45 44 43 46 49 46 47 53 52 57 64 58 60
84 83 81 80 81 81 82 82 82 81 81 77 69 61 56 51 48 48 47 49 50 50 50 51 50 51 51 49 48 46 45 45 44 45 44 48 47 48 54 58 56 59 60
84 81 81 82 84 80 83 83 82 79 74 66 61 57 50 47 48 48 50 53 53 53 52 52 52 52 53 54 52 50 48 44 42 41 42 44 49 52 52 55 55 54 56
88 87 87 88 90 83 85 82 77 73 67 63 58 51 49 49 50 51 55 56 55 52 50 49 49 49 50 52 52 52 51 48 44 41 38 39 41 44 50 55 55 55 53
87 90 91 92 89 83 81 75 72 69 65 55 48 47 48 50 52 55 56 54 51 48 46 45 47 47 47 48 49 48 48 48 46 43 40 36 37 40 42 45 48 49 49
85 87 89 83 84 75 74 71 71 64 51 44 45 47 49 52 56 56 52 50 48 46 44 42 40 40 42 45 44 43 43 43 44 42 40 38 37 37 38 38 41 43 45
84 86 84 83 68 76 75 71 59 47 40 43 46 48 50 55 57 54 50 49 47 45 43 41 38 36 37 38 37 36 37 37 38 39 37 36 37 36 37 38 41 43 45
87 84 78 70 66 73 65 59 46 40 41 43 47 48 52 53 52 50 49 48 46 44 42 39 39 39 39 35 30 28 29 30 30 32 33 31 32 32 33 35 36 39 40
84 78 73 72 65 53 53 39 40 39 41 43 45 49 52 50 50 49 47 46 44 40 36 35 36 35 29 25 24 23 22 24 24 23 23 23 24 23 23 23 25 28 31
76 73 70 63 52 39 31 29 33 36 40 40 44 47 47 47 47 43 43 43 36 31 29 27 24 20 15 16 17 16 17 18 16 16 15 14 14 15 17 19 22 23 24
71 67 57 43 29 22 24 25 31 36 37 40 44 43 43 44 42 40 39 32 25 21 19 15 12 9 6 4 4 7 11 14 14 13 12 11 13 15 16 15 16 19 23
62 50 35 25 21 24 23 29 34 36 38 41 44 41 41 41 37 35 30 23 22 21 19 17 15 12 11 7 2 9 13 14 14 11 8 8 6 4 2 4 6 8 12
45 31 22 25 23 22 27 32 36 36 39 43 41 40 38 37 34 28 21 20 21 21 19 17 14 12 9 7 6 10 14 13 10 9 11 12 11 9 7 7 9 11 14
29 23 25 27 24 24 29 33 37 37 39 43 39 38 36 33 29 20 16 18 20 19 17 15 13 13 13 12 9 9 11 12 16 15 13 10 8 7 6 7 10 13 16
25 25 27 27 25 27 31 35 37 37 39 42 36 35 34 31 26 18 16 17 17 16 14 13 12 10 10 10 9 9 10 15 13 12 11 9 6 5 5 7 8 11 15
26 26 28 28 26 28 32 34 36 36 39 41 33 31 32 28 24 17 15 15 15 15 14 11 9 8 7 6 6 6 6 8 8 8 8 6 4 3 4 6 8 11 13
26 27 28 29 28 30 32 34 35 35 39 42 32 29 28 26 22 17 14 14 13 12 12 11 8 7 6 6 5 3 0 3 6 7 6 3 1 1 3 6 7 9 11
27 27 27 29 29 30 32 34 34 34 39 41 34 29 29 27 23 19 17 15 14 12 10 9 9 8 7 6 7 7 6 5 7 8 7 5 4 3 3 5 6 7 8
27 28 28 29 29 29 31 33 33 34 38 40 34 29 27 27 24 21 17 17 17 17 14 11 9 7 6 6 7 7 7 7 8 10 10 9 8 7 6 7 7 7 7
27 27 28 29 29 29 29 32 31 33 37 39 37 29 27 26 25 23 21 17 17 18 20 19 15 12 9 8 6 6 8 9 10 11 11 11 10 10 10 10 9 9 9
27 27 27 28 28 28 29 31 29 33 36 38 38 32 25 25 25 25 23 22 19 17 18 22 23 21 18 15 13 11 10 9 8 10 11 13 13 13 13 13 12 12 12
27 27 27 27 26 27 30 28 29 33 36 38 38 35 28 25 25 25 25 24 22 20 18 18 21 25 24 23 20 19 17 15 14 13 13 13 13 14 14 14 14 14 15
27 26 26 25 26 27 27 26 29 33 35 37 37 37 30 26 25 26 27 27 24 22 19 18 18 20 24 26 26 25 24 22 21 20 19 18 18 18 18 18 18 18 18
27 25 25 25 26 26 25 26 29 31 34 37 36 38 31 27 25 26 28 27 26 23 21 19 19 18 18 22 26 27 28 27 27 25 25 24 24 24 24 24 24 24 25
26 24 24 25 27 25 25 26 28 31 33 36 36 39 33 28 27 27 28 28 26 24 22 20 19 19 19 18 20 23 27 29 29 29 29 29 29 29 28 29 29 29 29

GFSGL_500_spd_021.txt.gz
Wind_Speed
70 75 80 84 87 88 86 81 82 82 82 83 81 77 74 69 63 60 56 49 43 44 44 44 44 45 45 47 48 48 47 46 41 36 39 39 43 40 41 48 62 72 81
76 81 84 86 87 85 79 78 80 83 82 78 73 69 66 63 60 55 47 42 43 45 45 47 49 50 50 51 51 50 50 48 43 39 38 41 41 44 45 47 48 61 54
80 84 87 88 89 90 89 90 91 89 85 68 69 68 64 58 51 43 41 43 44 46 50 52 53 53 51 51 52 53 53 52 48 44 39 41 43 45 43 47 56 57 56
86 88 90 90 90 88 91 90 87 83 74 70 72 63 52 44 39 39 42 44 47 51 53 52 51 50 50 50 51 51 51 51 50 48 44 40 43 44 45 47 50 60 59
87 89 91 89 89 91 86 82 76 65 65 66 68 49 43 40 40 42 44 49 53 53 50 48 47 46 47 47 47 46 47 46 46 48 47 44 42 43 46 47 50 53 56
90 93 90 89 89 84 77 64 53 54 62 71 49 42 42 41 44 46 50 52 52 50 47 44 44 44 43 42 40 40 40 41 42 44 45 44 43 43 42 43 44 48 52
90 90 90 88 85 80 72 67 59 54 60 51 37 40 42 44 47 51 52 50 49 47 45 45 44 44 43 42 39 34 32 33 35 39 41 41 42 42 42 39 39 42 42
89 91 90 85 77 71 66 55 39 49 56 36 36 42 43 46 51 51 50 48 46 46 47 47 44 40 39 38 35 34 34 33 31 34 38 36 37 40 40 38 36 36 37
90 90 87 76 69 64 55 42 32 48 32 35 39 40 42 48 49 48 46 44 43 43 41 39 36 32 29 30 31 32 32 28 27 28 31 31 31 33 36 36 35 35 36
90 87 79 70 60 46 34 21 20 23 29 35 37 40 44 45 46 44 42 40 35 32 32 32 29 24 21 21 21 20 18 21 22 24 26 26 25 27 30 31 32 32 33
87 77 66 55 42 26 23 22 23 27 32 34 36 41 43 41 41 40 38 29 26 29 30 29 26 23 18 14 12 11 12 16 16 17 19 20 21 21 21 20 20 20 21
77 64 50 37 25 27 24 22 26 30 34 35 37 42 40 39 39 37 30 25 27 28 28 26 25 23 19 14 9 5 3 8 12 15 16 16 15 14 13 14 15 16 17
62 49 38 27 27 28 25 25 29 33 36 36 38 42 37 36 35 33 25 24 27 28 26 25 24 20 16 13 8 2 3 8 13 16 16 14 11 10 9 7 5 3 2
50 40 30 26 27 29 26 27 31 35 37 37 39 42 35 34 31 28 21 23 25 25 23 22 21 19 19 18 12 6 6 11 14 14 12 11 11 13 12 10 6 4 4
40 34 27 26 27 27 26 28 31 35 36 36 39 43 34 33 30 25 19 18 20 21 20 18 18 18 18 18 16 9 7 10 14 16 16 16 16 14 11 8 5 3 4
34 30 26 26 28 26 26 28 31 34 36 35 38 42 35 33 29 25 21 17 17 18 19 16 15 14 14 14 12 9 8 11 11 13 14 14 12 9 7 6 4 2 3
31 28 26 26 26 25 25 27 29 33 34 34 37 40 34 29 28 24 20 16 15 15 15 16 14 12 11 11 10 7 5 3 6 9 10 9 8 7 4 3 2 0 2
29 29 26 26 27 27 26 27 28 30 31 32 36 38 35 28 27 24 21 19 16 14 14 13 13 12 10 9 8 6 2 1 4 6 8 7 6 6 4 2 1 2 3
30 29 28 26 27 27 27 26 27 30 30 32 36 38 37 29 26 25 22 19 17 16 15 14 13 11 10 8 7 6 6 5 5 8 10 9 7 7 7 6 5 5 6
31 28 26 25 27 27 26 25 26 28 28 31 34 38 38 33 25 25 24 22 19 18 16 17 17 15 12 9 7 7 8 8 8 9 11 12 12 11 11 10 9 8 8
29 27 26 26 27 27 25 24 26 26 27 30 33 37 37 33 27 23 24 24 23 20 18 18 18 20 19 16 13 10 8 8 10 12 13 14 14 14 14 13 12 12 12
29 28 27 27 27 26 23 24 25 24 26 29 32 35 36 34 28 24 23 25 25 24 21 19 19 19 22 23 21 18 15 12 11 10 11 13 14 16 17 16 15 15 15
29 29 27 26 25 23 23 24 23 23 26 28 31 34 34 33 28 25 23 24 26 26 23 20 19 19 20 23 25 25 23 21 18 17 15 14 14 14 15 16 16 16 16
27 25 25 25 24 22 23 24 22 23 25 28 29 31 32 33 30 26 24 24 25 26 25 22 20 19 19 20 22 26 27 27 25 24 22 21 20 19 19 19 19 19 19
26 24 24 23 23 23 24 23 23 24 25 27 27 29 32 33 34 29 26 25 25 26 25 24 21 20 20 19 20 21 24 27 28 28 27 27 26 26 25 25 25 25 26
24 23 24 24 24 24 24 23 23 24 26 26 27 28 30 32 34 33 29 27 26 26 26 25 23 21 20 20 20 20 20 21 24 27 28 29 29 29 29 29 29 30 31

GFSGL_500_spd_024.txt.gz
Wind_Speed
64 69 73 77 81 85 87 88 89 88 88 90 91 92 82 70 66 67 68 57 51 47 46 44 44 45 46 48 49 50 51 53 52 47 43 40 45 46 46 46 46 58 71
69 73 77 82 86 88 90 90 90 92 93 91 85 72 68 59 63 70 76 48 44 42 42 44 46 47 49 52 54 54 54 54 55 52 50 45 44 48 46 46 49 47 53
73 78 82 86 88 92 93 95 94 94 91 63 64 69 60 63 62 74 54 47 46 46 46 48 51 53 54 55 54 53 53 53 53 53 52 50 47 45 49 48 45 50 44
77 81 84 88 93 96 97 95 95 88 79 69 61 57 56 57 68 59 48 48 47 49 53 55 55 54 52 51 51 49 48 46 46 49 50 51 49 48 48 50 50 49 53
79 84 89 93 95 96 97 95 90 79 72 64 51 53 54 58 57 48 48 49 51 54 54 52 51 49 49 50 49 46 43 42 41 41 42 48 48 48 50 48 49 48 55
84 89 92 93 94 95 94 88 79 69 59 39 40 47 46 46 45 46 48 51 52 52 49 48 48 50 50 50 49 47 43 41 39 36 37 41 44 45 47 49 46 48 48
87 89 91 92 93 91 88 76 61 51 41 31 42 47 45 43 43 46 51 50 50 47 47 45 39 40 41 39 38 38 38 39 39 36 32 34 40 41 43 45 47 47 46
87 89 90 90 90 87 71 54 41 31 24 27 32 35 39 41 44 48 47 48 44 43 35 35 36 36 36 34 31 30 30 31 33 33 32 32 34 37 39 41 44 42 42
88 88 89 90 87 71 51 36 27 27 26 29 32 37 39 41 46 44 44 41 39 31 35 38 38 36 33 31 27 23 26 29 30 31 31 30 30 31 34 35 38 39 38
86 87 89 86 71 53 39 28 28 29 30 33 36 37 38 42 45 41 42 36 28 30 36 37 37 34 30 26 24 20 17 19 22 24 23 24 25 26 27 28 32 33 37
86 87 85 71 54 43 30 28 30 29 31 35 37 38 40 44 43 40 39 31 25 30 32 32 32 31 29 25 19 17 13 11 11 13 14 17 19 22 21 22 25 29 32
85 84 73 57 44 36 28 29 30 30 32 36 39 39 40 44 41 39 36 28 25 28 29 28 29 29 28 25 18 14 12 6 5 8 11 15 16 15 15 17 19 22 23
82 76 62 48 38 31 28 30 30 30 33 36 38 38 39 43 39 36 36 28 23 25 26 25 26 27 27 27 21 15 12 7 5 9 12 14 14 14 14 14 15 17 18
74 65 52 40 33 29 29 31 30 29 32 35 37 38 39 40 38 34 33 29 22 23 24 23 23 24 24 24 23 17 12 8 7 10 13 14 14 12 11 11 11 11 10
65 56 44 36 31 28 29 30 30 29 30 33 35 36 38 39 39 32 32 28 22 20 21 20 19 20 21 22 20 17 12 6 5 7 10 11 12 13 14 14 11 10 7
57 48 39 34 31 28 28 29 30 30 30 31 34 35 37 38 38 32 30 28 24 19 18 18 18 17 16 16 17 13 10 9 7 8 10 12 13 12 11 10 9 8 6
50 43 36 31 30 28 28 30 32 31 29 30 33 33 36 38 37 31 27 26 24 20 17 16 16 15 14 12 11 11 7 6 5 2 5 8 8 8 8 7 6 5 4
44 39 33 30 28 27 27 27 29 28 28 30 32 32 35 37 36 32 25 25 24 22 18 17 16 15 14 12 10 8 6 4 2 2 3 4 5 7 7 7 7 6 5
41 36 31 28 26 26 26 27 27 26 26 28 29 31 34 37 36 32 26 22 23 22 21 19 18 17 15 14 12 9 7 6 6 7 7 9 8 8 8 9 8 7 6
39 35 29 27 26 26 26 26 26 25 26 26 27 30 33 35 35 32 28 23 22 23 23 21 19 20 20 18 15 12 10 10 10 10 12 12 13 13 13 12 12 11 10
37 34 29 28 27 26 25 24 24 24 25 24 26 28 30 33 34 32 29 26 24 24 25 23 21 20 21 22 21 19 16 13 11 12 14 15 15 16 17 17 16 16 15
34 32 28 26 24 23 22 22 23 24 23 23 24 26 28 30 32 33 30 28 26 24 24 24 23 21 20 23 23 25 23 21 18 15 13 14 16 18 18 19 20 19 18
31 29 27 24 22 22 22 22 22 23 22 22 24 25 26 27 29 32 32 30 27 26 25 25 24 22 20 20 23 24 26 27 26 24 21 19 17 16 17 18 19 20 20
29 27 26 24 22 21 21 23 24 23 22 23 23 25 26 26 28 30 32 33 30 28 26 25 25 25 22 20 20 21 23 26 29 29 28 27 25 23 22 21 21 21 21
28 27 27 26 25 25 24 25 25 24 23 23 24 25 26 27 28 29 31 32 32 31 29 27 25 25 24 22 21 21 21 23 25 29 31 31 31 30 28 28 27 26 26
26 26 27 27 27 27 26 26 26 26 24 24 26 26 27 27 28 30 31 32 33 33 32 29 27 26 26 25 23 22 22 22 23 25 27 30 31 32 32 32 32 31 31